This is the latest recevied weather packets stored in our database for station/object JE7UPL-13. If no packets are shown the sender has not sent any weather packets the latest 10 day(s).
| Time | Temp. | Humidity | Pressure | Rain* | Wind** | Luminosity | Snow |
|---|---|---|---|---|---|---|---|
| 1777425304 | 13.89° C | 42% | 1010.9 hPa | 0 mm | - | - | - |
| 1777424405 | 13.89° C | 51% | 1011.1 hPa | 0 mm | - | - | - |
| 1777423504 | 12.78° C | 48% | 1011.1 hPa | 0 mm | - | - | - |
| 1777422605 | 12.78° C | 53% | 1010.9 hPa | 0 mm | - | - | - |
| 1777421705 | 12.22° C | 56% | 1011.1 hPa | 0 mm | - | - | - |
| 1777420805 | 11.67° C | 60% | 1011.3 hPa | 0 mm | - | - | - |
| 1777419905 | 11.67° C | 58% | 1011.2 hPa | 0 mm | - | - | - |
| 1777419005 | 12.22° C | 56% | 1010.9 hPa | 0 mm | - | - | - |
| 1777418104 | 10.56° C | 60% | 1011 hPa | 0 mm | - | - | - |
| 1777417205 | 11.11° C | 60% | 1011.1 hPa | 0 mm | - | - | - |
| 1777416305 | 11.11° C | 67% | 1011.1 hPa | 0 mm | - | - | - |
| 1777415405 | 10° C | 71% | 1010.9 hPa | 0 mm | - | - | - |
| 1777414505 | 10° C | 74% | 1010.9 hPa | 0 mm | - | - | - |
| 1777413605 | 8.89° C | 76% | 1010.9 hPa | 0 mm | - | - | - |
| 1777412704 | 8.33° C | 79% | 1010.9 hPa | 0 mm | - | - | - |
| 1777411805 | 8.33° C | 83% | 1010.7 hPa | 0 mm | - | - | - |
| 1777410904 | 8.33° C | 87% | 1010.7 hPa | 0 mm | - | - | - |
| 1777410005 | 7.78° C | 92% | 1010.5 hPa | 0 mm | - | - | - |
| 1777409105 | 7.78° C | 92% | 1010.3 hPa | 0 mm | - | - | - |
| 1777408204 | 7.22° C | 93% | 1010.2 hPa | 0 mm | - | - | - |
| 1777407305 | 6.67° C | 94% | 1010.4 hPa | 0 mm | - | - | - |
| 1777406405 | 6.67° C | 94% | 1010.1 hPa | 0 mm | - | - | - |
| 1777405505 | 6.67° C | 94% | 1009.9 hPa | 0 mm | - | - | - |
| 1777404605 | 6.11° C | 93% | 1010 hPa | 0 mm | - | - | - |
| 1777403705 | 6.11° C | 93% | 1009.9 hPa | 0 mm | - | - | - |
* Rain latest hour (hover to see other rain measurements)
** Current wind speed in m/s (hover to see current wind gust speed)